Home > Weather > Lancy > Past weeks

Flag for Switzerland Past Weather in Lancy, Geneva, Switzerland — Yesterday and Last 2 Weeks

Now
64 °F

Clear.


Feels Like: 64 °F
Forecast: 63 / 86 °F
Wind: 2 mph from North

Location: Geneva Cointrin Airport

Current Time: Aug 27, 2016 at 5:23:08 AM

Latest Report: Aug 27, 2016 at 4:50 AM


Visibility: 10 mi

Pressure: 30.09 "Hg

Humidity: 83%

Dew Point: 59 °F

Location of LancyLocation

Past Weather in Lancy — Graph

°F

Lancy Temperature Yesterday

Maximum temperature yesterday: 91 °F (at 5:20 PM)
Minimum temperature yesterday: 61 °F (at 6:50 AM)
Average temperature yesterday: 76 °F

High & Low Weather Summary for the Past Weeks

 TemperatureHumidityPressure
High91 °F (Aug 25, 3:20 PM)100% (Aug 13, 5:20 AM)30.39 "Hg (Aug 13, 5:20 AM)
Low48 °F (Aug 22, 4:20 AM)29% (Aug 15, 5:20 PM)29.86 "Hg (Aug 17, 4:50 PM)
Average70 °F67%30.12 "Hg
* Reported Aug 12 3:50 AM — Aug 27 3:50 AM, Lancy, Weather by CustomWeather, © 2016

Note: Actual official high and low records may vary slightly from our data, if they occured in-between our weather recording intervals... More about our weather records

Advertising

Lancy Weather History for the Previous 24 Hours

Scroll right to see more
 ConditionsComfort  
Time TempWeatherWind HumidityBarometerVisibility
3:50 AM
Sat, Aug 27
64 °FClear.2 mph88%30.09 "Hg10 mi
2:50 AM66 °FClear.2 mph83%30.09 "Hg10 mi
2:20 AM68 °FClear.1 mph78%30.09 "Hg10 mi
1:50 AM68 °FClear.1 mph83%30.09 "Hg10 mi
1:20 AM68 °FClear.3 mph83%30.09 "Hg10 mi
12:50 AM68 °FClear.1 mph83%30.09 "Hg10 mi
12:20 AM68 °FClear.1 mph83%30.09 "Hg10 mi
11:50 PM
Fri, Aug 26
70 °FClear.1 mph78%30.09 "Hg10 mi
11:20 PM70 °FClear.1 mph73%30.09 "Hg10 mi
10:50 PM72 °FClear.1 mph73%30.09 "Hg10 mi
10:20 PM73 °FClear.1 mph65%30.09 "Hg10 mi
9:50 PM73 °FClear.1 mph69%30.09 "Hg10 mi
9:20 PM77 °FSunny.2 mph61%30.07 "Hg10 mi
8:50 PM79 °FSunny.1 mph61%30.07 "Hg10 mi
8:20 PM81 °FSunny.3 mph58%30.07 "Hg10 mi
7:50 PM86 °FPassing clouds.1 mph49%30.04 "HgN/A
7:20 PM90 °FPassing clouds.3 mph38%30.04 "HgN/A
6:50 PM90 °FPassing clouds.5 mph36%30.04 "HgN/A
6:20 PM90 °FPassing clouds.6 mph36%30.04 "HgN/A
5:50 PM91 °FPassing clouds.8 mph36%30.04 "HgN/A
5:20 PM91 °FPassing clouds.7 mph38%30.07 "HgN/A
4:50 PM90 °FPassing clouds.5 mph36%30.07 "HgN/A
4:20 PM90 °FPassing clouds.6 mph36%30.07 "HgN/A
3:50 PM90 °FPassing clouds.6 mph36%30.07 "HgN/A
3:20 PM88 °FPassing clouds.5 mph35%30.09 "HgN/A
2:50 PM88 °FPassing clouds.6 mph40%30.09 "HgN/A
2:20 PM88 °FPassing clouds.5 mph40%30.09 "HgN/A
1:50 PM86 °FPassing clouds.6 mph40%30.09 "HgN/A
1:20 PM84 °FPassing clouds.6 mph43%30.09 "HgN/A
12:50 PM84 °FPassing clouds.5 mph45%30.09 "HgN/A
12:20 PM82 °FPassing clouds.2 mph48%30.12 "HgN/A
11:50 AM82 °FPassing clouds.3 mph48%30.12 "HgN/A
11:20 AM81 °FPassing clouds.5 mph51%30.12 "HgN/A
10:50 AM79 °FPassing clouds.2 mph54%30.12 "HgN/A
10:20 AM79 °FSunny.2 mph51%30.12 "Hg10 mi
9:50 AM77 °FSunny.2 mph57%30.12 "Hg10 mi
9:20 AM73 °FSunny.1 mph65%30.12 "Hg10 mi
8:50 AM72 °FSunny.1 mph73%30.12 "Hg10 mi
8:20 AM68 °FSunny.1 mph83%30.12 "Hg10 mi
7:50 AM63 °FSunny.1 mph94%30.12 "Hg10 mi
7:20 AM61 °FClear.2 mph94%30.12 "Hg10 mi
6:50 AM61 °FClear.1 mph94%30.12 "Hg10 mi
6:20 AM63 °FClear.1 mph88%30.09 "Hg10 mi
5:50 AM63 °FClear.2 mph88%30.09 "Hg10 mi
5:20 AM63 °FClear.1 mph94%30.09 "Hg10 mi
Weather by CustomWeather, © 2016

See weather overviewHow to use our weather pages